• In Hungary
  • List of Countries
  • For 7 days
  • Water Temperature
  • Satellite Maps
  • Weather Map
  • News
  • Weather Widgets
  • user-avatar
    Login

    Hourly Weather Verhnetavrichanskiy

    Today, 20 August, Monday

    Time Temperature Precipitation Wind Pressure Humidity
    00:00 +19°C° 0 mm 3 mps 758 mmHg 37%
    01:00 +19°C° 0 mm 3 mps 758 mmHg 39%
    02:00 +18°C° 0 mm 3 mps 758 mmHg 41%
    03:00 +18°C° 0 mm 3 mps 758 mmHg 43%
    04:00 +17°C° 0 mm 3 mps 758 mmHg 45%
    05:00 +17°C° 0 mm 3 mps 759 mmHg 46%
    06:00 +17°C° 0 mm 3 mps 759 mmHg 48%
    07:00 +19°C° 0 mm 4 mps 759 mmHg 43%
    08:00 +21°C° 0 mm 4 mps 759 mmHg 38%
    09:00 +25°C° 0 mm 5 mps 759 mmHg 33%
    10:00 +26°C° 0 mm 5 mps 759 mmHg 30%
    11:00 +27°C° 0 mm 5 mps 758 mmHg 27%
    12:00 +28°C° 0 mm 5 mps 758 mmHg 23%
    13:00 +29°C° 0 mm 5 mps 758 mmHg 22%
    14:00 +30°C° 0 mm 5 mps 757 mmHg 20%
    15:00 +30°C° 0 mm 5 mps 757 mmHg 19%
    16:00 +30°C° 0 mm 5 mps 757 mmHg 20%
    17:00 +29°C° 0 mm 4 mps 757 mmHg 20%
    18:00 +29°C° 0 mm 4 mps 756 mmHg 21%
    19:00 +27°C° 0 mm 4 mps 756 mmHg 23%
    20:00 +25°C° 0 mm 3 mps 756 mmHg 25%
    21:00 +22°C° 0 mm 3 mps 757 mmHg 27%
    22:00 +22°C° 0 mm 3 mps 757 mmHg 28%
    23:00 +21°C° 0 mm 3 mps 756 mmHg 29%

    Tomorrow, 21 August, Tuesday

    Time Temperature Precipitation Wind Pressure Humidity
    00:00 +21°C° 0 mm 3 mps 756 mmHg 30%
    01:00 +20°C° 0 mm 3 mps 756 mmHg 33%
    02:00 +20°C° 0 mm 3 mps 756 mmHg 35%
    03:00 +19°C° 0 mm 3 mps 756 mmHg 38%
    04:00 +19°C° 0 mm 3 mps 756 mmHg 42%
    05:00 +19°C° 0 mm 3 mps 756 mmHg 47%
    06:00 +18°C° 0 mm 3 mps 756 mmHg 51%
    07:00 +21°C° 0 mm 3 mps 756 mmHg 46%
    08:00 +23°C° 0 mm 4 mps 756 mmHg 40%
    09:00 +27°C° 0 mm 5 mps 757 mmHg 35%
    10:00 +28°C° 0 mm 5 mps 756 mmHg 31%
    11:00 +30°C° 0 mm 5 mps 756 mmHg 26%
    12:00 +32°C° 0 mm 6 mps 756 mmHg 22%
    13:00 +32°C° 0 mm 5 mps 755 mmHg 21%
    14:00 +33°C° 0 mm 5 mps 755 mmHg 20%
    15:00 +33°C° 0 mm 5 mps 754 mmHg 19%
    16:00 +33°C° 0 mm 4 mps 754 mmHg 21%
    17:00 +32°C° 0 mm 4 mps 754 mmHg 22%
    18:00 +31°C° 0 mm 3 mps 754 mmHg 24%
    19:00 +29°C° 0 mm 3 mps 754 mmHg 27%
    20:00 +27°C° 0 mm 3 mps 754 mmHg 30%
    21:00 +25°C° 0 mm 2 mps 754 mmHg 33%
    22:00 +25°C° 0 mm 2 mps 754 mmHg 36%
    23:00 +24°C° 0 mm 3 mps 754 mmHg 39%

    Day after tomorrow, 22 August, Wednesday

    Time Temperature Precipitation Wind Pressure Humidity
    00:00 +24°C° 0 mm 3 mps 754 mmHg 42%
    01:00 +22°C° 0 mm 3 mps 754 mmHg 44%
    02:00 +22°C° 0 mm 3 mps 754 mmHg 47%
    03:00 +21°C° 0 mm 3 mps 754 mmHg 50%
    04:00 +21°C° 0 mm 3 mps 754 mmHg 52%
    05:00 +21°C° 0 mm 3 mps 755 mmHg 54%
    06:00 +21°C° 0 mm 2 mps 755 mmHg 55%
    07:00 +24°C° 0 mm 3 mps 755 mmHg 50%
    08:00 +26°C° 0 mm 3 mps 755 mmHg 44%
    09:00 +28°C° 0 mm 3 mps 755 mmHg 39%
    10:00 +30°C° 0 mm 2 mps 755 mmHg 34%
    11:00 +31°C° 0 mm 2 mps 754 mmHg 30%
    12:00 +32°C° 0 mm 1 mps 754 mmHg 26%
    13:00 +33°C° 0 mm 1 mps 754 mmHg 24%
    14:00 +33°C° 0 mm 1 mps 754 mmHg 23%
    15:00 +34°C° 0 mm 1 mps 753 mmHg 21%
    16:00 +34°C° 0 mm 1 mps 753 mmHg 21%
    17:00 +33°C° 0 mm 1 mps 753 mmHg 22%
    18:00 +34°C° 0 mm 2 mps 753 mmHg 22%
    19:00 +31°C° 0 mm 2 mps 754 mmHg 24%
    20:00 +29°C° 0 mm 2 mps 754 mmHg 27%
    21:00 +27°C° 0 mm 2 mps 755 mmHg 29%
    22:00 +26°C° 0 mm 3 mps 755 mmHg 34%
    23:00 +26°C° 0 mm 4 mps 755 mmHg 39%

    23 August, Thursday

    Time Temperature Precipitation Wind Pressure Humidity
    00:00 +25°C° 0 mm 4 mps 755 mmHg 44%
    01:00 +23°C° 0 mm 5 mps 755 mmHg 48%
    02:00 +22°C° 0 mm 5 mps 756 mmHg 51%
    03:00 +21°C° 0 mm 5 mps 756 mmHg 55%
    04:00 +21°C° 0 mm 5 mps 756 mmHg 54%
    05:00 +21°C° 0 mm 5 mps 756 mmHg 52%
    06:00 +21°C° 0 mm 6 mps 757 mmHg 51%
    07:00 +22°C° 0 mm 6 mps 757 mmHg 47%
    08:00 +24°C° 0 mm 6 mps 757 mmHg 43%
    09:00 +26°C° 0 mm 6 mps 757 mmHg 40%
    10:00 +28°C° 0 mm 6 mps 757 mmHg 36%
    11:00 +29°C° 0 mm 6 mps 757 mmHg 33%
    12:00 +32°C° 0 mm 6 mps 757 mmHg 30%
    13:00 +32°C° 0 mm 6 mps 757 mmHg 29%
    14:00 +33°C° 0 mm 6 mps 756 mmHg 27%
    15:00 +33°C° 0 mm 6 mps 756 mmHg 26%
    16:00 +33°C° 0 mm 5 mps 756 mmHg 26%
    17:00 +32°C° 0 mm 5 mps 756 mmHg 27%
    18:00 +32°C° 0 mm 5 mps 756 mmHg 27%
    19:00 +29°C° 0 mm 5 mps 757 mmHg 28%
    20:00 +28°C° 0 mm 5 mps 757 mmHg 29%
    21:00 +26°C° 0 mm 5 mps 757 mmHg 30%
    22:00 +25°C° 0 mm 5 mps 757 mmHg 29%
    23:00 +25°C° 0 mm 5 mps 757 mmHg 27%

    24 August, Friday

    Time Temperature Precipitation Wind Pressure Humidity
    00:00 +23°C° 0 mm 5 mps 757 mmHg 26%
    01:00 +23°C° 0 mm 5 mps 757 mmHg 27%
    02:00 +22°C° 0 mm 5 mps 757 mmHg 27%
    03:00 +22°C° 0 mm 5 mps 757 mmHg 27%
    04:00 +22°C° 0 mm 5 mps 757 mmHg 28%
    05:00 +21°C° 0 mm 5 mps 757 mmHg 29%
    06:00 +21°C° 0 mm 5 mps 757 mmHg 31%
    07:00 +23°C° 0 mm 6 mps 757 mmHg 29%
    08:00 +26°C° 0 mm 6 mps 757 mmHg 27%
    09:00 +27°C° 0 mm 7 mps 757 mmHg 25%
    10:00 +29°C° 0 mm 7 mps 757 mmHg 24%
    11:00 +30°C° 0 mm 7 mps 757 mmHg 23%
    12:00 +33°C° 0 mm 6 mps 757 mmHg 22%
    13:00 +33°C° 0 mm 6 mps 756 mmHg 21%
    14:00 +34°C° 0 mm 6 mps 756 mmHg 21%
    15:00 +34°C° 0 mm 6 mps 756 mmHg 21%
    16:00 +33°C° 0 mm 6 mps 756 mmHg 21%
    17:00 +33°C° 0 mm 6 mps 755 mmHg 22%
    18:00 +32°C° 0 mm 6 mps 755 mmHg 23%
    19:00 +29°C° 0 mm 6 mps 756 mmHg 24%
    20:00 +28°C° 0 mm 6 mps 756 mmHg 25%
    21:00 +26°C° 0 mm 5 mps 756 mmHg 26%
    22:00 +24°C° 0 mm 6 mps 756 mmHg 25%
    23:00 +24°C° 0 mm 6 mps 756 mmHg 24%

    25 August, Saturday

    Time Temperature Precipitation Wind Pressure Humidity
    00:00 +23°C° 0 mm 6 mps 756 mmHg 24%
    01:00 +23°C° 0 mm 6 mps 756 mmHg 25%
    02:00 +22°C° 0 mm 5 mps 756 mmHg 26%
    03:00 +22°C° 0 mm 5 mps 756 mmHg 27%
    04:00 +21°C° 0 mm 5 mps 756 mmHg 28%
    05:00 +21°C° 0 mm 5 mps 756 mmHg 30%
    06:00 +20°C° 0 mm 4 mps 756 mmHg 31%
    07:00 +22°C° 0 mm 5 mps 756 mmHg 29%
    08:00 +25°C° 0 mm 5 mps 756 mmHg 26%
    09:00 +27°C° 0 mm 6 mps 756 mmHg 24%
    10:00 +28°C° 0 mm 6 mps 756 mmHg 22%
    11:00 +30°C° 0 mm 6 mps 756 mmHg 20%
    12:00 +32°C° 0 mm 6 mps 755 mmHg 19%
    13:00 +32°C° 0 mm 6 mps 755 mmHg 18%
    14:00 +33°C° 0 mm 6 mps 755 mmHg 17%
    15:00 +33°C° 0 mm 6 mps 754 mmHg 16%
    16:00 +33°C° 0 mm 6 mps 754 mmHg 17%
    17:00 +32°C° 0 mm 5 mps 754 mmHg 17%
    18:00 +30°C° 0 mm 5 mps 753 mmHg 18%
    19:00 +29°C° 0 mm 5 mps 754 mmHg 18%
    20:00 +27°C° 0 mm 4 mps 754 mmHg 19%
    21:00 +25°C° 0 mm 4 mps 754 mmHg 20%
    22:00 +25°C° 0 mm 4 mps 754 mmHg 20%
    23:00 +23°C° 0 mm 4 mps 754 mmHg 20%
    Show more